TimeCDT,TemperatureF,Dew PointF,Humidity,Sea Level PressureIn,VisibilityMPH,Wind Direction,Wind SpeedMPH,Gust SpeedMPH,PrecipitationIn,Events,Conditions,WindDirDegrees,DateUTC
12:53 AM,57.0,51.1,81,30.12,10.0,South,9.2,-,N/A,,Clear,170,2013-03-16 05:53:00
1:53 AM,55.0,50.0,83,30.09,10.0,South,6.9,-,N/A,,Clear,170,2013-03-16 06:53:00
2:53 AM,54.0,50.0,86,30.07,10.0,South,5.8,-,N/A,,Clear,180,2013-03-16 07:53:00
3:53 AM,55.0,51.1,86,30.06,10.0,South,4.6,-,N/A,,Clear,170,2013-03-16 08:53:00
4:53 AM,52.0,50.0,93,30.05,10.0,Calm,Calm,-,N/A,,Clear,0,2013-03-16 09:53:00
5:53 AM,53.1,51.1,93,30.06,10.0,South,3.5,-,N/A,,Clear,170,2013-03-16 10:53:00
6:53 AM,52.0,51.1,97,30.06,8.0,SSE,4.6,-,N/A,,Clear,160,2013-03-16 11:53:00
7:53 AM,52.0,51.1,97,30.08,8.0,ESE,3.5,-,N/A,,Clear,120,2013-03-16 12:53:00
8:53 AM,61.0,55.9,83,30.08,10.0,South,8.1,-,N/A,,Partly Cloudy,180,2013-03-16 13:53:00
9:53 AM,66.9,55.0,66,30.08,10.0,SW,18.4,24.2,N/A,,Clear,220,2013-03-16 14:53:00
10:53 AM,69.1,55.0,61,30.08,10.0,SW,12.7,-,N/A,,Mostly Cloudy,220,2013-03-16 15:53:00
11:00 AM,68.0,53.6,60,30.08,10.0,SW,17.3,23.0,N/A,,Mostly Cloudy,220,2013-03-16 16:00:00
11:53 AM,71.1,54.0,55,30.08,10.0,West,13.8,19.6,N/A,,Mostly Cloudy,260,2013-03-16 16:53:00
12:53 PM,71.1,52.0,51,30.06,10.0,SSW,12.7,-,N/A,,Mostly Cloudy,210,2013-03-16 17:53:00
1:53 PM,73.0,52.0,48,30.03,10.0,SSW,10.4,20.7,N/A,,Scattered Clouds,200,2013-03-16 18:53:00
2:53 PM,75.0,52.0,44,29.99,10.0,South,8.1,-,N/A,,Clear,180,2013-03-16 19:53:00
3:53 PM,75.9,51.1,42,29.96,10.0,South,13.8,17.3,N/A,,Scattered Clouds,190,2013-03-16 20:53:00
4:53 PM,75.0,51.1,43,29.95,10.0,South,13.8,-,N/A,,Partly Cloudy,180,2013-03-16 21:53:00
5:53 PM,73.0,51.1,46,29.94,10.0,South,13.8,-,N/A,,Clear,190,2013-03-16 22:53:00
6:53 PM,70.0,51.1,51,29.95,10.0,South,11.5,-,N/A,,Partly Cloudy,180,2013-03-16 23:53:00
7:53 PM,66.9,51.1,57,29.96,10.0,SSW,13.8,-,N/A,,Clear,200,2013-03-17 00:53:00
8:53 PM,64.9,53.1,65,29.97,10.0,South,8.1,-,N/A,,Clear,190,2013-03-17 01:53:00
9:53 PM,63.0,52.0,67,29.99,10.0,South,6.9,-,N/A,,Clear,180,2013-03-17 02:53:00
10:53 PM,61.0,53.1,75,29.99,10.0,SSE,8.1,-,N/A,,Clear,160,2013-03-17 03:53:00
11:53 PM,61.0,54.0,78,29.97,10.0,SSE,5.8,-,N/A,,Clear,160,2013-03-17 04:53:00